Probability
0 0 0 0 0 0 0 0 0 0 0 0 1 1 1 2 4 7 8 9 10 9 9 10 13 15 15 13 12 14 17 19 19 17 15 12 9 8 8 9 7 5 5 4
0 0 0 0 0 0 0 0 0 0 0 1 2 2 1 1 2 5 8 9 10 10 10 11 12 14 15 14 14 16 20 20 18 16 14 12 9 8 9 10 8 7 5 5
0 0 0 0 0 0 0 0 0 0 0 1 1 1 1 0 0 2 6 9 10 10 11 10 11 12 13 14 15 19 22 22 19 17 15 13 10 9 9 10 10 8 6 6
0 0 0 0 0 0 0 0 0 0 0 0 0 0 0 0 0 1 4 7 10 11 11 10 11 12 12 14 16 18 21 22 22 20 17 15 14 13 10 9 10 10 8 8
0 0 0 0 0 0 0 0 0 0 0 0 0 0 0 0 0 1 3 6 10 12 12 13 13 14 15 16 16 17 19 22 23 21 19 17 16 15 13 10 10 11 11 10
0 0 0 0 0 0 0 0 0 0 0 0 0 0 0 0 0 1 3 6 9 12 16 18 18 19 21 20 18 17 17 20 21 20 19 18 16 15 13 11 11 11 12 11
0 0 0 0 0 0 0 0 0 0 0 0 0 0 0 0 0 1 3 6 9 14 19 21 21 24 26 25 22 19 18 19 19 18 17 16 15 14 12 10 10 11 12 11
0 0 0 0 0 0 0 0 0 0 0 0 0 0 0 0 0 1 3 5 9 15 19 21 23 27 30 30 26 24 22 22 19 17 14 12 11 11 10 10 10 11 12 11
0 0 0 0 0 0 0 0 0 0 0 0 0 0 0 0 1 2 3 6 10 14 15 17 20 25 29 30 28 25 24 21 19 16 12 9 8 9 9 10 10 11 12 12
0 0 0 0 0 0 0 0 0 0 0 0 0 0 0 0 1 3 4 6 9 10 12 14 16 20 24 25 23 21 19 18 16 15 12 9 7 8 9 10 10 11 12 11
0 0 0 0 0 0 0 0 0 0 0 0 0 0 0 0 1 3 5 6 7 8 10 12 15 17 19 19 19 18 17 15 14 13 11 9 8 9 10 11 11 10 10 10
0 0 0 0 0 0 0 0 0 0 0 0 0 0 0 0 1 3 6 7 8 9 11 12 15 19 19 18 17 18 17 15 13 11 8 8 8 10 10 11 11 11 10 10
0 0 0 0 0 0 0 0 0 0 0 0 0 0 0 1 2 4 6 8 9 10 12 14 17 19 18 16 15 15 16 14 11 9 7 6 6 6 6 7 9 10 11 11
0 0 0 0 0 0 0 0 0 0 0 0 0 0 0 1 3 5 8 10 10 10 12 14 16 17 16 13 11 11 11 9 8 7 6 5 4 2 2 2 4 5 8 10
0 0 0 0 0 1 1 0 0 0 0 0 0 1 1 3 5 6 8 12 12 10 10 12 13 13 12 10 8 6 5 4 4 4 3 3 2 1 0 0 1 1 4 6
0 0 0 0 0 1 1 1 1 1 1 1 1 2 3 4 5 6 9 12 13 10 10 10 11 11 10 8 5 2 1 0 1 1 1 1 1 0 0 0 0 0 2 3
0 0 0 0 0 1 1 1 2 2 2 2 2 3 4 5 5 5 8 11 11 9 8 9 9 9 8 6 3 0 0 0 0 0 0 0 0 0 0 0 0 0 1 2
0 0 0 0 0 0 0 0 1 2 3 2 2 2 3 4 4 4 5 7 7 5 5 7 8 8 6 4 1 0 0 0 0 0 0 0 0 0 0 0 0 0 1 1
0 0 0 0 0 0 0 0 1 2 2 2 2 1 1 2 3 2 1 2 2 2 3 6 8 7 4 1 0 0 0 0 0 0 0 0 0 0 0 0 0 0 0 0
0 0 0 0 0 0 0 0 1 1 1 2 2 2 1 1 1 1 1 1 1 2 5 8 9 6 3 1 0 0 0 0 0 0 0 0 0 0 0 0 0 0 0 0
0 0 0 0 0 0 0 0 0 0 0 1 1 2 2 1 1 1 2 3 3 4 5 8 8 5 1 0 0 0 0 0 0 0 0 0 0 0 0 0 0 0 0 0
0 0 0 0 0 0 0 0 0 0 0 0 0 1 1 2 2 3 4 4 4 4 5 7 8 5 1 0 0 0 0 0 0 0 0 0 0 0 0 0 0 0 0 0
0 0 0 0 0 0 0 0 0 0 0 0 0 0 1 1 2 2 3 3 4 5 6 6 7 5 2 0 0 0 0 0 0 0 0 0 0 0 0 0 0 0 0 1
0 0 0 0 0 0 0 0 0 0 0 0 0 0 0 1 1 2 3 3 4 6 6 6 7 5 2 0 0 0 0 0 0 0 0 0 0 1 1 0 0 0 0 1
0 0 0 0 0 0 0 0 0 0 0 0 0 0 0 1 2 3 2 3 4 5 5 6 6 4 1 1 0 0 0 0 0 0 0 0 1 2 1 0 0 0 0 1
0 0 0 0 0 0 0 0 0 0 0 0 0 0 0 1 2 3 2 2 4 4 4 4 5 3 1 1 0 0 0 0 0 0 0 1 2 2 1 0 0 0 0 0
Wind_Speed
3 4 4 7 7 5 3 2 4 6 3 1 4 6 6 3 3 4 4 5 6 7 5 4 5 6 6 6 6 6 6 5 5 3 3 2 2 1 1 1 1 1 1 2
4 3 7 4 4 3 2 2 4 5 2 1 2 5 4 2 5 6 6 6 6 4 3 4 5 5 6 7 7 7 7 7 6 4 3 2 2 1 1 0 0 1 1 1
6 5 3 5 3 3 3 4 5 4 3 3 1 6 4 3 2 1 3 4 5 7 6 6 6 6 6 7 7 7 7 7 6 5 3 3 2 1 1 0 0 1 1 1
4 4 3 3 4 6 5 6 5 3 0 3 1 3 6 3 3 3 4 4 5 5 5 5 5 6 7 7 6 6 6 6 6 6 5 5 4 3 2 1 1 1 1 1
5 3 4 5 6 7 6 2 3 2 3 0 1 2 8 2 3 6 5 6 6 5 6 6 6 6 5 5 6 5 5 5 5 5 6 5 4 3 1 1 1 0 0 1
4 3 4 6 4 5 3 5 5 5 5 1 3 4 6 4 5 5 4 5 5 5 5 4 4 4 4 4 5 5 6 5 5 5 5 6 5 4 3 2 2 1 1 1
3 3 2 2 1 1 4 6 4 4 3 5 3 3 8 7 5 5 6 5 4 4 4 4 5 5 5 6 5 5 6 5 4 5 5 5 5 5 5 4 3 2 1 1
3 5 4 3 5 5 4 8 8 5 5 5 1 5 7 5 4 3 3 3 2 3 4 5 5 5 5 6 5 5 5 5 4 5 4 4 4 3 3 3 3 3 2 2
6 6 4 3 3 7 5 4 5 7 2 1 4 5 7 2 3 2 1 0 1 2 3 4 4 4 5 6 5 5 5 5 5 5 4 3 3 3 3 3 2 2 2 2
7 3 4 2 3 3 5 7 6 6 5 3 4 4 5 4 4 3 2 1 1 1 2 3 3 4 4 5 5 4 4 5 4 4 3 3 3 3 3 3 2 2 2 2
4 4 3 1 3 4 3 4 5 5 5 6 3 7 6 6 5 5 4 3 3 3 2 3 3 3 4 4 4 4 4 3 4 4 3 3 2 2 3 3 2 2 2 2
2 5 2 5 3 2 4 6 7 5 4 4 4 8 5 4 4 4 3 3 2 2 2 3 3 4 4 4 4 3 3 3 4 4 3 3 3 3 2 2 1 2 2 2
4 5 2 3 3 1 2 3 4 6 5 4 4 8 3 1 1 2 2 2 2 3 3 4 4 3 3 3 3 3 2 2 3 3 4 3 3 3 2 2 1 1 2 1
5 4 6 8 6 3 2 3 4 6 4 4 7 7 6 4 3 3 2 1 2 3 4 4 4 3 3 3 2 3 2 2 3 3 4 3 2 2 2 2 2 2 2 2
5 3 2 3 3 3 3 4 5 5 7 7 7 6 7 6 5 4 2 2 3 3 4 4 4 3 3 3 3 3 2 3 3 3 3 2 2 2 2 2 2 1 1 1
3 3 1 1 1 2 3 3 5 4 4 5 4 6 5 3 1 1 2 4 4 4 4 4 4 4 4 4 3 3 2 2 3 3 3 2 2 2 2 2 2 1 1 1
2 4 3 1 2 1 4 4 4 3 3 4 6 6 2 2 2 3 4 4 4 4 4 4 5 5 5 4 4 4 3 2 3 3 3 3 3 3 2 2 2 2 1 1
5 4 3 2 1 4 6 1 2 3 2 2 2 2 2 3 3 2 2 3 3 3 4 5 4 4 3 4 3 3 3 3 3 3 2 3 3 3 2 2 2 2 2 1
4 6 4 3 2 4 4 2 0 2 3 1 2 2 1 1 3 2 1 1 3 3 3 3 3 3 4 4 4 4 3 3 3 3 3 3 4 3 3 2 2 2 2 1
3 4 5 3 3 5 5 3 2 2 3 2 1 2 1 2 1 3 3 1 1 1 1 2 2 2 4 4 5 5 4 3 3 3 3 3 4 4 3 3 2 2 2 2
2 2 3 3 3 5 4 4 1 3 5 2 2 2 2 3 4 3 2 1 1 1 1 3 3 3 3 4 5 4 3 3 3 3 3 3 3 4 3 3 2 2 2 2
3 3 3 3 3 6 3 1 2 4 2 1 2 2 2 2 2 1 1 0 1 1 2 3 3 2 2 4 5 4 3 3 2 3 3 3 3 3 3 3 3 3 3 3
2 4 4 5 5 4 2 2 2 1 1 1 2 2 2 1 1 1 1 0 1 2 2 2 3 2 1 2 4 5 3 2 3 3 3 3 3 2 3 3 3 3 3 2
2 0 1 1 3 3 2 2 2 1 1 1 1 2 2 2 1 1 1 0 0 1 1 2 3 2 1 1 2 3 2 3 3 3 3 3 3 2 2 2 3 3 3 3
2 1 0 2 3 2 2 2 2 2 2 1 1 1 1 2 1 1 1 1 0 1 1 2 2 2 1 1 1 2 3 3 3 3 2 2 2 3 2 2 2 2 2 3
2 3 3 5 4 3 4 3 2 2 2 1 1 1 1 2 2 1 1 1 1 1 2 2 1 1 1 1 1 1 2 3 4 3 2 2 2 2 2 2 2 2 1 2
Wind_Direction
103 96 191 206 189 188 184 204 258 262 269 245 257 271 282 253 197 198 199 199 204 215 211 180 175 164 156 157 163 169 166 164 155 155 158 160 180 181 191 198 202 188 173 156
66 242 223 186 175 181 195 246 269 288 300 206 271 287 286 237 214 206 201 205 210 213 197 186 177 170 172 174 175 175 174 170 171 168 161 160 148 167 185 181 153 180 182 170
176 229 177 152 168 185 220 211 237 253 332 11 9 319 312 302 309 270 220 203 208 205 201 196 187 185 177 179 182 186 185 178 173 160 139 112 91 58 78 112 232 240 194 177
214 244 168 167 199 176 242 230 218 226 154 291 78 278 291 294 304 273 251 221 218 215 199 198 189 187 188 186 179 180 178 177 171 160 158 160 169 180 197 196 201 202 186 207
226 199 173 201 216 177 215 212 180 183 164 284 339 177 281 317 281 268 251 235 227 212 197 199 196 191 185 173 170 172 166 170 169 169 168 165 172 178 161 152 164 190 222 227
234 223 194 209 208 179 169 72 57 50 80 228 237 175 270 249 239 268 264 246 225 208 195 188 176 162 159 157 159 162 164 171 167 168 168 171 173 169 167 178 192 210 230 242
300 292 254 183 108 77 103 91 37 4 16 248 248 184 245 251 247 249 258 245 219 195 177 167 164 166 165 167 167 165 165 169 165 164 170 177 177 173 187 195 195 190 207 228
193 275 246 199 180 181 170 142 157 188 214 266 277 225 250 261 269 262 252 230 196 176 174 171 173 170 167 166 161 160 162 162 160 161 172 177 177 175 188 194 189 190 201 213
179 245 279 233 186 146 141 172 164 137 161 232 274 279 298 290 328 324 313 163 192 192 176 163 157 156 160 160 161 165 159 160 166 163 166 170 174 180 184 179 179 190 193 193
158 219 279 271 84 50 138 144 105 124 150 224 276 265 252 268 272 284 276 228 221 190 156 150 153 157 158 154 150 149 157 164 159 154 169 170 173 179 176 171 186 192 181 174
147 174 285 31 155 173 102 104 110 123 153 161 224 263 231 222 225 227 235 227 203 183 176 165 157 150 137 131 135 142 146 148 148 154 157 151 153 159 165 175 193 189 173 169
145 135 224 254 255 178 152 158 144 150 202 174 178 260 273 230 232 215 224 221 199 165 151 143 137 128 124 127 132 141 146 156 154 151 146 144 142 139 142 161 184 172 167 176
131 119 109 333 329 26 115 143 143 126 122 154 176 259 304 316 290 257 227 212 161 133 125 121 120 124 124 124 128 129 135 144 142 138 137 134 135 139 149 156 159 155 161 167
119 121 167 196 212 193 180 166 148 130 149 196 218 248 292 297 280 282 274 193 146 129 134 136 135 136 135 134 130 124 141 142 144 137 133 139 145 154 158 153 147 147 150 161
104 135 203 240 236 189 196 195 177 177 184 191 226 231 257 258 246 250 229 169 139 142 152 155 151 153 152 143 131 139 160 147 140 135 135 150 153 139 125 126 131 128 136 149
78 130 117 310 264 205 234 230 204 208 202 216 234 253 257 271 277 258 205 172 170 179 179 173 167 170 174 163 155 154 160 155 141 142 149 151 144 132 127 139 135 119 106 100
88 120 112 241 297 8 254 231 201 203 207 195 220 243 275 272 241 223 206 184 187 190 184 178 181 185 184 178 169 171 169 151 141 147 154 153 153 147 146 139 120 121 120 98
138 116 121 142 92 223 243 271 184 184 212 215 234 265 259 252 254 244 181 176 196 194 191 184 180 181 179 169 165 160 150 147 144 149 160 162 157 157 147 138 142 136 124 122
154 137 127 132 181 266 292 306 195 194 257 259 247 275 301 327 45 360 311 191 208 209 202 185 177 170 161 163 160 148 140 140 142 158 175 176 165 158 152 157 163 147 137 135
73 111 123 143 173 221 245 293 301 135 257 288 232 232 271 79 80 270 289 297 273 236 177 146 141 137 148 159 151 145 148 152 173 186 187 178 167 163 170 177 167 153 151 158
63 81 144 174 208 254 276 300 338 165 237 278 225 212 191 194 214 253 298 291 187 180 156 138 134 156 173 161 147 151 161 190 202 185 172 169 168 169 176 170 157 154 147 137
164 153 176 159 194 250 306 18 173 224 255 236 218 212 196 231 267 295 292 235 145 138 132 128 130 154 170 159 151 159 193 211 178 160 168 178 174 174 167 157 155 152 148 143
189 188 183 188 209 246 270 233 251 223 222 234 219 233 193 225 265 286 287 286 159 159 149 127 127 132 152 165 163 169 205 187 165 160 174 179 171 163 157 162 162 156 158 162
283 158 149 247 266 276 283 310 320 307 238 265 248 226 187 202 252 273 242 285 107 136 127 111 118 133 150 148 155 168 181 176 168 170 175 169 163 158 153 161 167 168 175 180
255 210 156 249 268 313 310 300 309 323 328 349 339 277 202 168 215 215 209 191 144 123 105 118 136 149 189 155 142 145 155 157 159 164 170 164 159 156 157 156 163 182 195 189
235 193 188 230 230 213 260 279 304 312 306 294 293 308 291 188 188 170 173 169 134 141 124 120 138 142 158 148 162 153 160 160 157 163 171 165 152 153 150 144 109 71 132 140